owner,sensor,date,latitude,longitude,vertical_datum,sea_water_temperature,qcFlag 
NERRS,ioos:station:NOAA.NERRS:apaebwq:1,2017-08-08T12:45:00Z,29.7858,-84.8752,0.0,29.5,2 
NERRS,ioos:station:NOAA.NERRS:apaebwq:1,2017-08-08T13:45:00Z,29.7858,-84.8752,0.0,29.6,2 
NERRS,ioos:station:NOAA.NERRS:apaebwq:1,2017-08-08T14:45:00Z,29.7858,-84.8752,0.0,29.6,2 
NERRS,ioos:station:NOAA.NERRS:apaebwq:1,2017-08-08T15:45:00Z,29.7858,-84.8752,0.0,29.6,2 
NERRS,ioos:station:NOAA.NERRS:apaebwq:1,2017-08-08T16:45:00Z,29.7858,-84.8752,0.0,29.6,2 
NERRS,ioos:station:NOAA.NERRS:apaebwq:1,2017-08-08T17:45:00Z,29.7858,-84.8752,0.0,29.6,2 
NERRS,ioos:station:NOAA.NERRS:apaebwq:1,2017-08-08T18:45:00Z,29.7858,-84.8752,0.0,30.2,2 
NERRS,ioos:station:NOAA.NERRS:apaebwq:1,2017-08-08T19:45:00Z,29.7858,-84.8752,0.0,30.4,2 
NERRS,ioos:station:NOAA.NERRS:apaebwq:1,2017-08-08T20:45:00Z,29.7858,-84.8752,0.0,30.5,2 
NERRS,ioos:station:NOAA.NERRS:apaebwq:1,2017-08-08T21:45:00Z,29.7858,-84.8752,0.0,30.8,2 
NERRS,ioos:station:NOAA.NERRS:apaebwq:1,2017-08-08T22:45:00Z,29.7858,-84.8752,0.0,30.8,2 
NERRS,ioos:station:NOAA.NERRS:apaebwq:1,2017-08-08T23:45:00Z,29.7858,-84.8752,0.0,31.4,2 
NERRS,ioos:station:NOAA.NERRS:apaebwq:1,2017-08-09T00:45:00Z,29.7858,-84.8752,0.0,31.3,2 
NERRS,ioos:station:NOAA.NERRS:apaebwq:1,2017-08-09T01:45:00Z,29.7858,-84.8752,0.0,31.0,2 
NERRS,ioos:station:NOAA.NERRS:apaebwq:1,2017-08-09T02:45:00Z,29.7858,-84.8752,0.0,30.9,2 
NERRS,ioos:station:NOAA.NERRS:apaebwq:1,2017-08-09T03:45:00Z,29.7858,-84.8752,0.0,30.9,2 
NERRS,ioos:station:NOAA.NERRS:apaebwq:1,2017-08-09T04:45:00Z,29.7858,-84.8752,0.0,30.8,2 
NERRS,ioos:station:NOAA.NERRS:apaebwq:1,2017-08-09T05:45:00Z,29.7858,-84.8752,0.0,30.7,2 
NERRS,ioos:station:NOAA.NERRS:apaebwq:1,2017-08-09T06:45:00Z,29.7858,-84.8752,0.0,30.6,2 
NERRS,ioos:station:NOAA.NERRS:apaebwq:1,2017-08-09T07:45:00Z,29.7858,-84.8752,0.0,30.5,2 
NERRS,ioos:station:NOAA.NERRS:apaebwq:1,2017-08-09T08:45:00Z,29.7858,-84.8752,0.0,30.5,2 
NERRS,ioos:station:NOAA.NERRS:apaebwq:1,2017-08-09T09:45:00Z,29.7858,-84.8752,0.0,30.5,2 
NERRS,ioos:station:NOAA.NERRS:apaebwq:1,2017-08-09T10:45:00Z,29.7858,-84.8752,0.0,30.1,2 
NERRS,ioos:station:NOAA.NERRS:apaebwq:1,2017-08-09T11:45:00Z,29.7858,-84.8752,0.0,30.1,2 
NERRS,ioos:station:NOAA.NERRS:apaebwq:1,2017-08-09T12:45:00Z,29.7858,-84.8752,0.0,30.0,2 
NERRS,ioos:station:NOAA.NERRS:apaebwq:1,2017-08-09T13:45:00Z,29.7858,-84.8752,0.0,29.9,2 
NERRS,ioos:station:NOAA.NERRS:apaebwq:1,2017-08-09T14:45:00Z,29.7858,-84.8752,0.0,30.0,2 
NERRS,ioos:station:NOAA.NERRS:apaebwq:1,2017-08-09T15:45:00Z,29.7858,-84.8752,0.0,30.0,2 
NERRS,ioos:station:NOAA.NERRS:apaebwq:1,2017-08-09T22:45:00Z,29.7858,-84.8752,0.0,30.9,2 
NERRS,ioos:station:NOAA.NERRS:apaebwq:1,2017-08-09T23:45:00Z,29.7858,-84.8752,0.0,31.8,2 
NERRS,ioos:station:NOAA.NERRS:apaebwq:1,2017-08-10T00:45:00Z,29.7858,-84.8752,0.0,31.8,2 
NERRS,ioos:station:NOAA.NERRS:apaebwq:1,2017-08-10T01:45:00Z,29.7858,-84.8752,0.0,31.3,2 
NERRS,ioos:station:NOAA.NERRS:apaebwq:1,2017-08-10T02:45:00Z,29.7858,-84.8752,0.0,30.9,2 
NERRS,ioos:station:NOAA.NERRS:apaebwq:1,2017-08-10T03:45:00Z,29.7858,-84.8752,0.0,31.0,2 
NERRS,ioos:station:NOAA.NERRS:apaebwq:1,2017-08-10T04:45:00Z,29.7858,-84.8752,0.0,30.7,2 
NERRS,ioos:station:NOAA.NERRS:apaebwq:1,2017-08-10T05:45:00Z,29.7858,-84.8752,0.0,30.6,2 
NERRS,ioos:station:NOAA.NERRS:apaebwq:1,2017-08-10T06:45:00Z,29.7858,-84.8752,0.0,30.7,2 
NERRS,ioos:station:NOAA.NERRS:apaebwq:1,2017-08-10T07:45:00Z,29.7858,-84.8752,0.0,30.5,2 
NERRS,ioos:station:NOAA.NERRS:apaebwq:1,2017-08-10T08:45:00Z,29.7858,-84.8752,0.0,30.6,2 
NERRS,ioos:station:NOAA.NERRS:apaebwq:1,2017-08-10T09:45:00Z,29.7858,-84.8752,0.0,30.6,2 
NERRS,ioos:station:NOAA.NERRS:apaebwq:1,2017-08-10T10:45:00Z,29.7858,-84.8752,0.0,30.6,2 
NERRS,ioos:station:NOAA.NERRS:apaebwq:1,2017-08-10T11:45:00Z,29.7858,-84.8752,0.0,30.6,2 
NERRS,ioos:station:NOAA.NERRS:apaebwq:1,2017-08-10T12:45:00Z,29.7858,-84.8752,0.0,30.6,2 
NERRS,ioos:station:NOAA.NERRS:apaebwq:1,2017-08-10T13:45:00Z,29.7858,-84.8752,0.0,30.6,2 
NERRS,ioos:station:NOAA.NERRS:apaebwq:1,2017-08-10T14:45:00Z,29.7858,-84.8752,0.0,30.5,2 
NERRS,ioos:station:NOAA.NERRS:apaebwq:1,2017-08-10T15:45:00Z,29.7858,-84.8752,0.0,30.4,2 
NERRS,ioos:station:NOAA.NERRS:apaebwq:1,2017-08-10T16:45:00Z,29.7858,-84.8752,0.0,30.3,2 
NERRS,ioos:station:NOAA.NERRS:apaebwq:1,2017-08-10T17:45:00Z,29.7858,-84.8752,0.0,30.4,2 
NERRS,ioos:station:NOAA.NERRS:apaebwq:1,2017-08-10T18:45:00Z,29.7858,-84.8752,0.0,30.5,2 
NERRS,ioos:station:NOAA.NERRS:apaebwq:1,2017-08-10T19:45:00Z,29.7858,-84.8752,0.0,30.4,2 
NERRS,ioos:station:NOAA.NERRS:apaebwq:1,2017-08-10T20:45:00Z,29.7858,-84.8752,0.0,30.3,2 
NERRS,ioos:station:NOAA.NERRS:apaebwq:1,2017-08-10T21:45:00Z,29.7858,-84.8752,0.0,30.3,2 
NERRS,ioos:station:NOAA.NERRS:apaebwq:1,2017-08-10T22:45:00Z,29.7858,-84.8752,0.0,30.3,2 
NERRS,ioos:station:NOAA.NERRS:apaebwq:1,2017-08-10T23:45:00Z,29.7858,-84.8752,0.0,30.3,2 
NERRS,ioos:station:NOAA.NERRS:apaebwq:1,2017-08-11T00:45:00Z,29.7858,-84.8752,0.0,30.3,2 
NERRS,ioos:station:NOAA.NERRS:apaebwq:1,2017-08-11T01:45:00Z,29.7858,-84.8752,0.0,30.3,2 
NERRS,ioos:station:NOAA.NERRS:apaebwq:1,2017-08-11T02:45:00Z,29.7858,-84.8752,0.0,30.3,2 
NERRS,ioos:station:NOAA.NERRS:apaebwq:1,2017-08-11T03:45:00Z,29.7858,-84.8752,0.0,30.3,2 
NERRS,ioos:station:NOAA.NERRS:apaebwq:1,2017-08-11T04:45:00Z,29.7858,-84.8752,0.0,30.3,2 
NERRS,ioos:station:NOAA.NERRS:apaebwq:1,2017-08-11T06:45:00Z,29.7858,-84.8752,0.0,30.4,2 
NERRS,ioos:station:NOAA.NERRS:apaebwq:1,2017-08-11T07:45:00Z,29.7858,-84.8752,0.0,30.6,2 
NERRS,ioos:station:NOAA.NERRS:apaebwq:1,2017-08-11T08:45:00Z,29.7858,-84.8752,0.0,30.6,2 
NERRS,ioos:station:NOAA.NERRS:apaebwq:1,2017-08-11T09:45:00Z,29.7858,-84.8752,0.0,30.5,2 
NERRS,ioos:station:NOAA.NERRS:apaebwq:1,2017-08-11T10:45:00Z,29.7858,-84.8752,0.0,30.5,2 
NERRS,ioos:station:NOAA.NERRS:apaebwq:1,2017-08-11T11:45:00Z,29.7858,-84.8752,0.0,30.5,2 
NERRS,ioos:station:NOAA.NERRS:apaebwq:1,2017-08-11T12:45:00Z,29.7858,-84.8752,0.0,30.5,2 
NERRS,ioos:station:NOAA.NERRS:apaebwq:1,2017-08-11T13:45:00Z,29.7858,-84.8752,0.0,30.5,2 
NERRS,ioos:station:NOAA.NERRS:apaebwq:1,2017-08-11T14:45:00Z,29.7858,-84.8752,0.0,30.4,2 
NERRS,ioos:station:NOAA.NERRS:apaebwq:1,2017-08-11T15:45:00Z,29.7858,-84.8752,0.0,30.4,2 
NERRS,ioos:station:NOAA.NERRS:apaebwq:1,2017-08-11T16:45:00Z,29.7858,-84.8752,0.0,30.5,2 
NERRS,ioos:station:NOAA.NERRS:apaebwq:1,2017-08-11T17:45:00Z,29.7858,-84.8752,0.0,30.5,2 
NERRS,ioos:station:NOAA.NERRS:apaebwq:1,2017-08-11T18:45:00Z,29.7858,-84.8752,0.0,30.5,2 
NERRS,ioos:station:NOAA.NERRS:apaebwq:1,2017-08-11T19:45:00Z,29.7858,-84.8752,0.0,30.4,2 
NERRS,ioos:station:NOAA.NERRS:apaebwq:1,2017-08-11T20:45:00Z,29.7858,-84.8752,0.0,30.4,2 
NERRS,ioos:station:NOAA.NERRS:apaebwq:1,2017-08-11T21:45:00Z,29.7858,-84.8752,0.0,30.4,2 
NERRS,ioos:station:NOAA.NERRS:apaebwq:1,2017-08-11T22:45:00Z,29.7858,-84.8752,0.0,30.4,2 
NERRS,ioos:station:NOAA.NERRS:apaebwq:1,2017-08-11T23:45:00Z,29.7858,-84.8752,0.0,30.5,2 
NERRS,ioos:station:NOAA.NERRS:apaebwq:1,2017-08-12T00:45:00Z,29.7858,-84.8752,0.0,30.4,2 
NERRS,ioos:station:NOAA.NERRS:apaebwq:1,2017-08-12T01:45:00Z,29.7858,-84.8752,0.0,30.5,2 
NERRS,ioos:station:NOAA.NERRS:apaebwq:1,2017-08-12T02:45:00Z,29.7858,-84.8752,0.0,30.5,2 
NERRS,ioos:station:NOAA.NERRS:apaebwq:1,2017-08-12T03:45:00Z,29.7858,-84.8752,0.0,30.4,2 
NERRS,ioos:station:NOAA.NERRS:apaebwq:1,2017-08-12T04:45:00Z,29.7858,-84.8752,0.0,30.5,2 
NERRS,ioos:station:NOAA.NERRS:apaebwq:1,2017-08-12T05:45:00Z,29.7858,-84.8752,0.0,30.8,2 
NERRS,ioos:station:NOAA.NERRS:apaebwq:1,2017-08-12T06:45:00Z,29.7858,-84.8752,0.0,30.9,2 
NERRS,ioos:station:NOAA.NERRS:apaebwq:1,2017-08-12T07:45:00Z,29.7858,-84.8752,0.0,30.9,2 
NERRS,ioos:station:NOAA.NERRS:apaebwq:1,2017-08-12T08:45:00Z,29.7858,-84.8752,0.0,30.9,2 
NERRS,ioos:station:NOAA.NERRS:apaebwq:1,2017-08-12T09:45:00Z,29.7858,-84.8752,0.0,30.9,2 
NERRS,ioos:station:NOAA.NERRS:apaebwq:1,2017-08-12T10:45:00Z,29.7858,-84.8752,0.0,30.9,2 
NERRS,ioos:station:NOAA.NERRS:apaebwq:1,2017-08-12T11:45:00Z,29.7858,-84.8752,0.0,30.9,2 
NERRS,ioos:station:NOAA.NERRS:apaebwq:1,2017-08-12T12:45:00Z,29.7858,-84.8752,0.0,30.8,2 
NERRS,ioos:station:NOAA.NERRS:apaebwq:1,2017-08-12T13:45:00Z,29.7858,-84.8752,0.0,30.8,2 
NERRS,ioos:station:NOAA.NERRS:apaebwq:1,2017-08-12T15:45:00Z,29.7858,-84.8752,0.0,30.9,2 
NERRS,ioos:station:NOAA.NERRS:apaebwq:1,2017-08-12T16:45:00Z,29.7858,-84.8752,0.0,30.8,2 
NERRS,ioos:station:NOAA.NERRS:apaebwq:1,2017-08-12T17:45:00Z,29.7858,-84.8752,0.0,30.8,2 
NERRS,ioos:station:NOAA.NERRS:apaebwq:1,2017-08-12T18:45:00Z,29.7858,-84.8752,0.0,30.8,2 
NERRS,ioos:station:NOAA.NERRS:apaebwq:1,2017-08-12T19:45:00Z,29.7858,-84.8752,0.0,30.8,2 
NERRS,ioos:station:NOAA.NERRS:apaebwq:1,2017-08-12T20:45:00Z,29.7858,-84.8752,0.0,30.8,2 
NERRS,ioos:station:NOAA.NERRS:apaebwq:1,2017-08-12T21:45:00Z,29.7858,-84.8752,0.0,30.8,2 
NERRS,ioos:station:NOAA.NERRS:apaebwq:1,2017-08-12T22:45:00Z,29.7858,-84.8752,0.0,30.8,2 
NERRS,ioos:station:NOAA.NERRS:apaebwq:1,2017-08-12T23:45:00Z,29.7858,-84.8752,0.0,30.8,2 
NERRS,ioos:station:NOAA.NERRS:apaebwq:1,2017-08-13T00:45:00Z,29.7858,-84.8752,0.0,30.8,2 
NERRS,ioos:station:NOAA.NERRS:apaebwq:1,2017-08-13T01:45:00Z,29.7858,-84.8752,0.0,30.8,2 
NERRS,ioos:station:NOAA.NERRS:apaebwq:1,2017-08-13T02:45:00Z,29.7858,-84.8752,0.0,30.9,2 
NERRS,ioos:station:NOAA.NERRS:apaebwq:1,2017-08-13T03:45:00Z,29.7858,-84.8752,0.0,30.9,2 
NERRS,ioos:station:NOAA.NERRS:apaebwq:1,2017-08-13T04:45:00Z,29.7858,-84.8752,0.0,30.9,2 
NERRS,ioos:station:NOAA.NERRS:apaebwq:1,2017-08-13T05:45:00Z,29.7858,-84.8752,0.0,30.9,2 
NERRS,ioos:station:NOAA.NERRS:apaebwq:1,2017-08-13T06:45:00Z,29.7858,-84.8752,0.0,31.0,2 
NERRS,ioos:station:NOAA.NERRS:apaebwq:1,2017-08-13T07:45:00Z,29.7858,-84.8752,0.0,31.1,2 
NERRS,ioos:station:NOAA.NERRS:apaebwq:1,2017-08-13T08:45:00Z,29.7858,-84.8752,0.0,31.1,2 
NERRS,ioos:station:NOAA.NERRS:apaebwq:1,2017-08-13T09:45:00Z,29.7858,-84.8752,0.0,30.9,2 
NERRS,ioos:station:NOAA.NERRS:apaebwq:1,2017-08-13T10:45:00Z,29.7858,-84.8752,0.0,30.7,2 
NERRS,ioos:station:NOAA.NERRS:apaebwq:1,2017-08-13T11:45:00Z,29.7858,-84.8752,0.0,30.4,2 
NERRS,ioos:station:NOAA.NERRS:apaebwq:1,2017-08-13T12:45:00Z,29.7858,-84.8752,0.0,30.3,2 
NERRS,ioos:station:NOAA.NERRS:apaebwq:1,2017-08-13T13:45:00Z,29.7858,-84.8752,0.0,30.3,2 
NERRS,ioos:station:NOAA.NERRS:apaebwq:1,2017-08-13T14:45:00Z,29.7858,-84.8752,0.0,30.7,2 
NERRS,ioos:station:NOAA.NERRS:apaebwq:1,2017-08-13T15:45:00Z,29.7858,-84.8752,0.0,30.6,2 
NERRS,ioos:station:NOAA.NERRS:apaebwq:1,2017-08-13T16:45:00Z,29.7858,-84.8752,0.0,30.6,2 
NERRS,ioos:station:NOAA.NERRS:apaebwq:1,2017-08-13T17:45:00Z,29.7858,-84.8752,0.0,30.7,2 
NERRS,ioos:station:NOAA.NERRS:apaebwq:1,2017-08-13T18:45:00Z,29.7858,-84.8752,0.0,30.6,2 
NERRS,ioos:station:NOAA.NERRS:apaebwq:1,2017-08-13T19:45:00Z,29.7858,-84.8752,0.0,30.7,2 
NERRS,ioos:station:NOAA.NERRS:apaebwq:1,2017-08-13T20:45:00Z,29.7858,-84.8752,0.0,31.3,2 
NERRS,ioos:station:NOAA.NERRS:apaebwq:1,2017-08-13T21:45:00Z,29.7858,-84.8752,0.0,31.3,2 
NERRS,ioos:station:NOAA.NERRS:apaebwq:1,2017-08-13T22:45:00Z,29.7858,-84.8752,0.0,31.1,2 
NERRS,ioos:station:NOAA.NERRS:apaebwq:1,2017-08-13T23:45:00Z,29.7858,-84.8752,0.0,31.1,2 
NERRS,ioos:station:NOAA.NERRS:apaebwq:1,2017-08-14T00:45:00Z,29.7858,-84.8752,0.0,30.9,2 
NERRS,ioos:station:NOAA.NERRS:apaebwq:1,2017-08-14T01:45:00Z,29.7858,-84.8752,0.0,30.9,2 
NERRS,ioos:station:NOAA.NERRS:apaebwq:1,2017-08-14T02:45:00Z,29.7858,-84.8752,0.0,30.9,2 
NERRS,ioos:station:NOAA.NERRS:apaebwq:1,2017-08-14T03:45:00Z,29.7858,-84.8752,0.0,30.8,2 
NERRS,ioos:station:NOAA.NERRS:apaebwq:1,2017-08-14T04:45:00Z,29.7858,-84.8752,0.0,30.9,2 
NERRS,ioos:station:NOAA.NERRS:apaebwq:1,2017-08-14T05:45:00Z,29.7858,-84.8752,0.0,31.0,2 
NERRS,ioos:station:NOAA.NERRS:apaebwq:1,2017-08-14T06:45:00Z,29.7858,-84.8752,0.0,31.0,2 
NERRS,ioos:station:NOAA.NERRS:apaebwq:1,2017-08-14T07:45:00Z,29.7858,-84.8752,0.0,30.9,2 
NERRS,ioos:station:NOAA.NERRS:apaebwq:1,2017-08-14T08:45:00Z,29.7858,-84.8752,0.0,30.8,2 
NERRS,ioos:station:NOAA.NERRS:apaebwq:1,2017-08-14T09:45:00Z,29.7858,-84.8752,0.0,30.8,2 
NERRS,ioos:station:NOAA.NERRS:apaebwq:1,2017-08-14T10:45:00Z,29.7858,-84.8752,0.0,30.5,2 
NERRS,ioos:station:NOAA.NERRS:apaebwq:1,2017-08-14T11:45:00Z,29.7858,-84.8752,0.0,30.3,2 
NERRS,ioos:station:NOAA.NERRS:apaebwq:1,2017-08-14T12:45:00Z,29.7858,-84.8752,0.0,30.2,2 
NERRS,ioos:station:NOAA.NERRS:apaebwq:1,2017-08-14T13:45:00Z,29.7858,-84.8752,0.0,30.1,2 
NERRS,ioos:station:NOAA.NERRS:apaebwq:1,2017-08-14T14:45:00Z,29.7858,-84.8752,0.0,30.2,2 
NERRS,ioos:station:NOAA.NERRS:apaebwq:1,2017-08-14T16:45:00Z,29.7858,-84.8752,0.0,30.4,2 
NERRS,ioos:station:NOAA.NERRS:apaebwq:1,2017-08-14T17:45:00Z,29.7858,-84.8752,0.0,31.3,2 
NERRS,ioos:station:NOAA.NERRS:apaebwq:1,2017-08-14T18:45:00Z,29.7858,-84.8752,0.0,31.9,2 
NERRS,ioos:station:NOAA.NERRS:apaebwq:1,2017-08-14T19:45:00Z,29.7858,-84.8752,0.0,32.1,2 
NERRS,ioos:station:NOAA.NERRS:apaebwq:1,2017-08-14T20:45:00Z,29.7858,-84.8752,0.0,32.2,2 
NERRS,ioos:station:NOAA.NERRS:apaebwq:1,2017-08-14T21:45:00Z,29.7858,-84.8752,0.0,32.0,2 
NERRS,ioos:station:NOAA.NERRS:apaebwq:1,2017-08-14T22:45:00Z,29.7858,-84.8752,0.0,31.6,2 
NERRS,ioos:station:NOAA.NERRS:apaebwq:1,2017-08-14T23:45:00Z,29.7858,-84.8752,0.0,31.4,2 
NERRS,ioos:station:NOAA.NERRS:apaebwq:1,2017-08-15T00:45:00Z,29.7858,-84.8752,0.0,31.3,2 
NERRS,ioos:station:NOAA.NERRS:apaebwq:1,2017-08-15T01:45:00Z,29.7858,-84.8752,0.0,31.4,2 
NERRS,ioos:station:NOAA.NERRS:apaebwq:1,2017-08-15T02:45:00Z,29.7858,-84.8752,0.0,32.0,2 
NERRS,ioos:station:NOAA.NERRS:apaebwq:1,2017-08-15T03:45:00Z,29.7858,-84.8752,0.0,32.2,2 
NERRS,ioos:station:NOAA.NERRS:apaebwq:1,2017-08-15T04:45:00Z,29.7858,-84.8752,0.0,32.1,2 
NERRS,ioos:station:NOAA.NERRS:apaebwq:1,2017-08-15T05:45:00Z,29.7858,-84.8752,0.0,32.1,2 
NERRS,ioos:station:NOAA.NERRS:apaebwq:1,2017-08-15T06:45:00Z,29.7858,-84.8752,0.0,32.1,2 
NERRS,ioos:station:NOAA.NERRS:apaebwq:1,2017-08-15T07:45:00Z,29.7858,-84.8752,0.0,32.0,2 
NERRS,ioos:station:NOAA.NERRS:apaebwq:1,2017-08-15T08:45:00Z,29.7858,-84.8752,0.0,31.9,2 
NERRS,ioos:station:NOAA.NERRS:apaebwq:1,2017-08-15T09:45:00Z,29.7858,-84.8752,0.0,31.8,2 
NERRS,ioos:station:NOAA.NERRS:apaebwq:1,2017-08-15T10:45:00Z,29.7858,-84.8752,0.0,30.7,2 
NERRS,ioos:station:NOAA.NERRS:apaebwq:1,2017-08-15T11:45:00Z,29.7858,-84.8752,0.0,30.6,2 
NERRS,ioos:station:NOAA.NERRS:apaebwq:1,2017-08-15T12:45:00Z,29.7858,-84.8752,0.0,30.7,2 
NERRS,ioos:station:NOAA.NERRS:apaebwq:1,2017-08-15T13:45:00Z,29.7858,-84.8752,0.0,30.6,2 
NERRS,ioos:station:NOAA.NERRS:apaebwq:1,2017-08-15T14:45:00Z,29.7858,-84.8752,0.0,30.5,2 
NERRS,ioos:station:NOAA.NERRS:apaebwq:1,2017-08-15T15:45:00Z,29.7858,-84.8752,0.0,30.6,2 
NERRS,ioos:station:NOAA.NERRS:apaebwq:1,2017-08-15T16:45:00Z,29.7858,-84.8752,0.0,30.3,2 
NERRS,ioos:station:NOAA.NERRS:apaebwq:1,2017-08-15T18:45:00Z,29.7858,-84.8752,0.0,31.0,2 
NERRS,ioos:station:NOAA.NERRS:apaebwq:1,2017-08-15T19:45:00Z,29.7858,-84.8752,0.0,31.3,2 
NERRS,ioos:station:NOAA.NERRS:apaebwq:1,2017-08-15T21:45:00Z,29.7858,-84.8752,0.0,31.3,2 
NERRS,ioos:station:NOAA.NERRS:apaebwq:1,2017-08-15T22:45:00Z,29.7858,-84.8752,0.0,31.2,2 
NERRS,ioos:station:NOAA.NERRS:apaebwq:1,2017-08-15T23:45:00Z,29.7858,-84.8752,0.0,30.4,2 
NERRS,ioos:station:NOAA.NERRS:apaebwq:1,2017-08-16T00:45:00Z,29.7858,-84.8752,0.0,31.1,2 
NERRS,ioos:station:NOAA.NERRS:apaebwq:1,2017-08-16T01:45:00Z,29.7858,-84.8752,0.0,31.0,2 
NERRS,ioos:station:NOAA.NERRS:apaebwq:1,2017-08-16T02:45:00Z,29.7858,-84.8752,0.0,30.9,2 
NERRS,ioos:station:NOAA.NERRS:apaebwq:1,2017-08-16T03:45:00Z,29.7858,-84.8752,0.0,30.9,2 
NERRS,ioos:station:NOAA.NERRS:apaebwq:1,2017-08-16T04:45:00Z,29.7858,-84.8752,0.0,30.9,2 
NERRS,ioos:station:NOAA.NERRS:apaebwq:1,2017-08-16T05:45:00Z,29.7858,-84.8752,0.0,30.7,2 
NERRS,ioos:station:NOAA.NERRS:apaebwq:1,2017-08-16T06:45:00Z,29.7858,-84.8752,0.0,30.4,2 
NERRS,ioos:station:NOAA.NERRS:apaebwq:1,2017-08-16T07:45:00Z,29.7858,-84.8752,0.0,30.1,2 
NERRS,ioos:station:NOAA.NERRS:apaebwq:1,2017-08-16T08:45:00Z,29.7858,-84.8752,0.0,30.1,2 
NERRS,ioos:station:NOAA.NERRS:apaebwq:1,2017-08-16T09:45:00Z,29.7858,-84.8752,0.0,30.1,2 
NERRS,ioos:station:NOAA.NERRS:apaebwq:1,2017-08-16T10:45:00Z,29.7858,-84.8752,0.0,30.3,2 
NERRS,ioos:station:NOAA.NERRS:apaebwq:1,2017-08-16T11:45:00Z,29.7858,-84.8752,0.0,30.3,2 
NERRS,ioos:station:NOAA.NERRS:apaebwq:1,2017-08-16T12:45:00Z,29.7858,-84.8752,0.0,30.3,2 
NERRS,ioos:station:NOAA.NERRS:apaebwq:1,2017-08-16T13:45:00Z,29.7858,-84.8752,0.0,30.5,2 
NERRS,ioos:station:NOAA.NERRS:apaebwq:1,2017-08-16T14:45:00Z,29.7858,-84.8752,0.0,31.1,2 
NERRS,ioos:station:NOAA.NERRS:apaebwq:1,2017-08-16T15:45:00Z,29.7858,-84.8752,0.0,31.0,2 
NERRS,ioos:station:NOAA.NERRS:apaebwq:1,2017-08-16T16:45:00Z,29.7858,-84.8752,0.0,30.2,2 
NERRS,ioos:station:NOAA.NERRS:apaebwq:1,2017-08-16T18:45:00Z,29.7858,-84.8752,0.0,30.9,2 
NERRS,ioos:station:NOAA.NERRS:apaebwq:1,2017-08-16T19:45:00Z,29.7858,-84.8752,0.0,31.1,2 
NERRS,ioos:station:NOAA.NERRS:apaebwq:1,2017-08-16T20:45:00Z,29.7858,-84.8752,0.0,31.3,2 
NERRS,ioos:station:NOAA.NERRS:apaebwq:1,2017-08-16T21:45:00Z,29.7858,-84.8752,0.0,30.9,2 
NERRS,ioos:station:NOAA.NERRS:apaebwq:1,2017-08-17T03:45:00Z,29.7858,-84.8752,0.0,30.9,2 
NERRS,ioos:station:NOAA.NERRS:apaebwq:1,2017-08-17T04:45:00Z,29.7858,-84.8752,0.0,30.8,2 
NERRS,ioos:station:NOAA.NERRS:apaebwq:1,2017-08-17T05:45:00Z,29.7858,-84.8752,0.0,31.0,2 
NERRS,ioos:station:NOAA.NERRS:apaebwq:1,2017-08-17T06:45:00Z,29.7858,-84.8752,0.0,31.0,2 
NERRS,ioos:station:NOAA.NERRS:apaebwq:1,2017-08-17T07:45:00Z,29.7858,-84.8752,0.0,30.9,2 
NERRS,ioos:station:NOAA.NERRS:apaebwq:1,2017-08-17T08:45:00Z,29.7858,-84.8752,0.0,30.9,2 
NERRS,ioos:station:NOAA.NERRS:apaebwq:1,2017-08-17T09:45:00Z,29.7858,-84.8752,0.0,30.9,2 
NERRS,ioos:station:NOAA.NERRS:apaebwq:1,2017-08-17T10:45:00Z,29.7858,-84.8752,0.0,30.9,2 
NERRS,ioos:station:NOAA.NERRS:apaebwq:1,2017-08-17T11:45:00Z,29.7858,-84.8752,0.0,30.9,2 
NERRS,ioos:station:NOAA.NERRS:apaebwq:1,2017-08-17T12:45:00Z,29.7858,-84.8752,0.0,30.8,2 
NERRS,ioos:station:NOAA.NERRS:apaebwq:1,2017-08-17T13:45:00Z,29.7858,-84.8752,0.0,30.9,2 
NERRS,ioos:station:NOAA.NERRS:apaebwq:1,2017-08-17T14:45:00Z,29.7858,-84.8752,0.0,31.0,2 
NERRS,ioos:station:NOAA.NERRS:apaebwq:1,2017-08-17T15:45:00Z,29.7858,-84.8752,0.0,30.9,2 
NERRS,ioos:station:NOAA.NERRS:apaebwq:1,2017-08-17T16:45:00Z,29.7858,-84.8752,0.0,30.9,2 
NERRS,ioos:station:NOAA.NERRS:apaebwq:1,2017-08-17T17:45:00Z,29.7858,-84.8752,0.0,30.9,2 
NERRS,ioos:station:NOAA.NERRS:apaebwq:1,2017-08-17T18:45:00Z,29.7858,-84.8752,0.0,30.9,2 
NERRS,ioos:station:NOAA.NERRS:apaebwq:1,2017-08-17T19:45:00Z,29.7858,-84.8752,0.0,30.9,2 
NERRS,ioos:station:NOAA.NERRS:apaebwq:1,2017-08-17T20:45:00Z,29.7858,-84.8752,0.0,30.9,2 
NERRS,ioos:station:NOAA.NERRS:apaebwq:1,2017-08-17T21:45:00Z,29.7858,-84.8752,0.0,31.4,2 
NERRS,ioos:station:NOAA.NERRS:apaebwq:1,2017-08-17T23:45:00Z,29.7858,-84.8752,0.0,32.0,2 
NERRS,ioos:station:NOAA.NERRS:apaebwq:1,2017-08-18T00:45:00Z,29.7858,-84.8752,0.0,31.4,2 
NERRS,ioos:station:NOAA.NERRS:apaebwq:1,2017-08-18T01:45:00Z,29.7858,-84.8752,0.0,31.8,2 
NERRS,ioos:station:NOAA.NERRS:apaebwq:1,2017-08-18T02:45:00Z,29.7858,-84.8752,0.0,32.0,2 
NERRS,ioos:station:NOAA.NERRS:apaebwq:1,2017-08-18T03:45:00Z,29.7858,-84.8752,0.0,31.4,2 
NERRS,ioos:station:NOAA.NERRS:apaebwq:1,2017-08-18T04:45:00Z,29.7858,-84.8752,0.0,30.8,2 
NERRS,ioos:station:NOAA.NERRS:apaebwq:1,2017-08-18T05:45:00Z,29.7858,-84.8752,0.0,30.8,2 
NERRS,ioos:station:NOAA.NERRS:apaebwq:1,2017-08-18T06:45:00Z,29.7858,-84.8752,0.0,30.8,2 
NERRS,ioos:station:NOAA.NERRS:apaebwq:1,2017-08-18T07:45:00Z,29.7858,-84.8752,0.0,31.0,2 
NERRS,ioos:station:NOAA.NERRS:apaebwq:1,2017-08-18T08:45:00Z,29.7858,-84.8752,0.0,31.0,2 
NERRS,ioos:station:NOAA.NERRS:apaebwq:1,2017-08-18T09:45:00Z,29.7858,-84.8752,0.0,30.9,2 
NERRS,ioos:station:NOAA.NERRS:apaebwq:1,2017-08-18T10:45:00Z,29.7858,-84.8752,0.0,30.9,2 
NERRS,ioos:station:NOAA.NERRS:apaebwq:1,2017-08-18T11:45:00Z,29.7858,-84.8752,0.0,30.9,2 
NERRS,ioos:station:NOAA.NERRS:apaebwq:1,2017-08-18T12:45:00Z,29.7858,-84.8752,0.0,31.1,2 
NERRS,ioos:station:NOAA.NERRS:apaebwq:1,2017-08-18T13:45:00Z,29.7858,-84.8752,0.0,31.1,2 
NERRS,ioos:station:NOAA.NERRS:apaebwq:1,2017-08-18T14:45:00Z,29.7858,-84.8752,0.0,31.0,2 
NERRS,ioos:station:NOAA.NERRS:apaebwq:1,2017-08-18T15:45:00Z,29.7858,-84.8752,0.0,31.1,2 
NERRS,ioos:station:NOAA.NERRS:apaebwq:1,2017-08-18T16:45:00Z,29.7858,-84.8752,0.0,31.1,2 
NERRS,ioos:station:NOAA.NERRS:apaebwq:1,2017-08-18T17:45:00Z,29.7858,-84.8752,0.0,31.1,2 
NERRS,ioos:station:NOAA.NERRS:apaebwq:1,2017-08-18T18:45:00Z,29.7858,-84.8752,0.0,31.2,2 
NERRS,ioos:station:NOAA.NERRS:apaebwq:1,2017-08-18T19:45:00Z,29.7858,-84.8752,0.0,31.2,2 
NERRS,ioos:station:NOAA.NERRS:apaebwq:1,2017-08-19T02:45:00Z,29.7858,-84.8752,0.0,30.9,2 
NERRS,ioos:station:NOAA.NERRS:apaebwq:1,2017-08-19T03:45:00Z,29.7858,-84.8752,0.0,30.8,2 
NERRS,ioos:station:NOAA.NERRS:apaebwq:1,2017-08-19T04:45:00Z,29.7858,-84.8752,0.0,30.7,2 
NERRS,ioos:station:NOAA.NERRS:apaebwq:1,2017-08-19T05:45:00Z,29.7858,-84.8752,0.0,30.7,2 
NERRS,ioos:station:NOAA.NERRS:apaebwq:1,2017-08-19T06:45:00Z,29.7858,-84.8752,0.0,30.6,2 
NERRS,ioos:station:NOAA.NERRS:apaebwq:1,2017-08-19T08:45:00Z,29.7858,-84.8752,0.0,30.7,2 
NERRS,ioos:station:NOAA.NERRS:apaebwq:1,2017-08-19T09:45:00Z,29.7858,-84.8752,0.0,30.7,2 
NERRS,ioos:station:NOAA.NERRS:apaebwq:1,2017-08-19T10:45:00Z,29.7858,-84.8752,0.0,30.5,2 
NERRS,ioos:station:NOAA.NERRS:apaebwq:1,2017-08-19T11:45:00Z,29.7858,-84.8752,0.0,30.6,2 
NERRS,ioos:station:NOAA.NERRS:apaebwq:1,2017-08-19T12:45:00Z,29.7858,-84.8752,0.0,30.5,2 
NERRS,ioos:station:NOAA.NERRS:apaebwq:1,2017-08-19T13:45:00Z,29.7858,-84.8752,0.0,30.5,2 
NERRS,ioos:station:NOAA.NERRS:apaebwq:1,2017-08-19T14:45:00Z,29.7858,-84.8752,0.0,30.5,2 
NERRS,ioos:station:NOAA.NERRS:apaebwq:1,2017-08-19T15:45:00Z,29.7858,-84.8752,0.0,30.3,2 
NERRS,ioos:station:NOAA.NERRS:apaebwq:1,2017-08-19T16:45:00Z,29.7858,-84.8752,0.0,30.3,2 
NERRS,ioos:station:NOAA.NERRS:apaebwq:1,2017-08-19T17:45:00Z,29.7858,-84.8752,0.0,30.3,2 
NERRS,ioos:station:NOAA.NERRS:apaebwq:1,2017-08-19T18:45:00Z,29.7858,-84.8752,0.0,30.3,2 
NERRS,ioos:station:NOAA.NERRS:apaebwq:1,2017-08-19T19:45:00Z,29.7858,-84.8752,0.0,30.3,2 
NERRS,ioos:station:NOAA.NERRS:apaebwq:1,2017-08-19T20:45:00Z,29.7858,-84.8752,0.0,30.5,2 
NERRS,ioos:station:NOAA.NERRS:apaebwq:1,2017-08-19T21:45:00Z,29.7858,-84.8752,0.0,30.4,2 
NERRS,ioos:station:NOAA.NERRS:apaebwq:1,2017-08-19T22:45:00Z,29.7858,-84.8752,0.0,31.0,2 
NERRS,ioos:station:NOAA.NERRS:apaebwq:1,2017-08-19T23:45:00Z,29.7858,-84.8752,0.0,30.9,2 
NERRS,ioos:station:NOAA.NERRS:apaebwq:1,2017-08-20T01:45:00Z,29.7858,-84.8752,0.0,30.8,2 
NERRS,ioos:station:NOAA.NERRS:apaebwq:1,2017-08-20T02:45:00Z,29.7858,-84.8752,0.0,30.8,2 
NERRS,ioos:station:NOAA.NERRS:apaebwq:1,2017-08-20T03:45:00Z,29.7858,-84.8752,0.0,30.8,2 
NERRS,ioos:station:NOAA.NERRS:apaebwq:1,2017-08-20T04:45:00Z,29.7858,-84.8752,0.0,30.6,2 
NERRS,ioos:station:NOAA.NERRS:apaebwq:1,2017-08-20T05:45:00Z,29.7858,-84.8752,0.0,30.4,2 
NERRS,ioos:station:NOAA.NERRS:apaebwq:1,2017-08-20T06:45:00Z,29.7858,-84.8752,0.0,30.2,2 
NERRS,ioos:station:NOAA.NERRS:apaebwq:1,2017-08-20T07:45:00Z,29.7858,-84.8752,0.0,30.0,2 
NERRS,ioos:station:NOAA.NERRS:apaebwq:1,2017-08-20T08:45:00Z,29.7858,-84.8752,0.0,30.0,2 
NERRS,ioos:station:NOAA.NERRS:apaebwq:1,2017-08-20T09:45:00Z,29.7858,-84.8752,0.0,30.0,2 
NERRS,ioos:station:NOAA.NERRS:apaebwq:1,2017-08-20T10:45:00Z,29.7858,-84.8752,0.0,29.9,2 
NERRS,ioos:station:NOAA.NERRS:apaebwq:1,2017-08-20T11:45:00Z,29.7858,-84.8752,0.0,29.7,2 
NERRS,ioos:station:NOAA.NERRS:apaebwq:1,2017-08-20T12:45:00Z,29.7858,-84.8752,0.0,29.7,2 
NERRS,ioos:station:NOAA.NERRS:apaebwq:1,2017-08-20T13:45:00Z,29.7858,-84.8752,0.0,29.9,2 
NERRS,ioos:station:NOAA.NERRS:apaebwq:1,2017-08-20T14:45:00Z,29.7858,-84.8752,0.0,29.9,2 